Regional Weather Roundup
Issued by NWS Jackson, KY

Home | Current Version | Previous Version | Graphics & Text | Print | Product List | Glossary On
Versions: 1 2 3 4 5 6 7 8 9 10 11 12 13 14 15 16 17 18 19 20 21 22 23 24 25 26 27 28 29 30 31 32 33 34 35 36 37 38 39 40 41 42 43 44 45 46 47 48 49 50
584
ASUS43 KJKL 231910
RWRJKL

EAST KENTUCKY HOURLY WEATHER ROUNDUP
NATIONAL WEATHER SERVICE JACKSON KY
200 PM EST FRI FEB 23 2018

NOTE: "FAIR" INDICATES FEW OR NO CLOUDS BELOW 12,000 FEET WITH
NO SIGNIFICANT WEATHER AND/OR OBSTRUCTIONS TO VISIBILITY.

* THESE REPORTS ARE NOT UNDER NWS QUALITY CONTROL AND MAY NOT
  REPORT WEATHER SUCH AS PRECIPITATION AND FOG.

KYZ079-080-083-085-087-088-110-112-115-119-120-232000
...EASTERN KENTUCKY...

CITY           SKY/WX    TMP DP  RH WIND       PRES   REMARKS
JACKSON          N/A     75  58  55 VRB6G22   30.29F
LONDON         PTSUNNY   75  58  55 SW12      30.29F
SOMERSET*        N/A     75  59  57 W14       30.30F
WILLIAMSBURG*    N/A     73  59  60 W6        30.30F
MIDDLESBORO*   CLOUDY    74  57  53 SW5       30.31F
HARLAN APT*    CLOUDY    68  61  77 CALM      30.33F
PIKE CO APT*   PTSUNNY   75  56  51 SW8       30.29F
BIG SANDY APT* MOCLDY    75  56  51 W16G31    30.27F
MOREHEAD APT*  MOCLDY    70  61  73 SW21G30   30.27F
ASHLAND*         N/A     72  62  71 SW21      30.24F
$$

KYZ035-036-041-042-044-050-067-078-099-232000
...CENTRAL KENTUCKY...

CITY           SKY/WX    TMP DP  RH WIND       PRES   REMARKS
MT STERLING*   PTSUNNY   72  63  73 W6G16     30.27F
FLEMING/MASON* PTSUNNY   64  63  96 SW15G21   30.25F
DANVILLE*        N/A     72  59  64 SW13G25   30.28F
LEXINGTON        N/A     68  62  81 SW14G24   30.26F
FRANKFORT      PTSUNNY   67  62  84 SW14      30.23F
LOUISVILLE     CLOUDY    68  62  81 SW13      30.23S
LEBANON*         N/A     72  61  68 S16       30.26F
GLASGOW*       PTSUNNY   74  61  62 SW13      30.26F
BOWLING GREEN    N/A     75  64  68 SW14G21   30.25F
$$

KYZ091>093-OHZ055-061-077-WVZ005-015-034-035-042-232000
...SOUTHERN OHIO/WEST VIRGINIA...

CITY           SKY/WX    TMP DP  RH WIND       PRES   REMARKS
COVINGTON      LGT RAIN  62  61  96 SW9       30.21S FOG
COLUMBUS       LGT RAIN  62  60  93 SW16      30.19F
DAYTON         LGT RAIN  58  57  97 W18       30.20S FOG
WILMINGTON     CLOUDY    63  61  93 SW23G32   30.18F
HUNTINGTON     PTSUNNY   74  59  59 W13G28    30.24F
CHARLESTON     PTSUNNY   75  58  55 SW16G23   30.24F
BECKLEY          N/A     73  54  51 SW10      30.32F
BLUEFIELD      PTSUNNY   69  49  48 W12G20    30.35F
LOGAN CO APT*  MOCLDY    79  57  47 VRB6G14   30.28F
$$

VAZ002-007-008-TNZ017-027-036-066-071-232000
...SOUTHWEST VIRGINIA/EAST TENNESSEE...

CITY           SKY/WX    TMP DP  RH WIND       PRES   REMARKS
WISE*            N/A     70  54  56 W15G21    30.37F
JONESVILLE*      N/A     77  57  50 SW8       30.34F
ABINGDON*      PTSUNNY   76  54  45 W14       30.34F
BRISTOL          N/A     78  55  44 SW6       30.32F
MORRISTOWN*    PTCLDY    75  57  53 SW10      30.32F
SEVIERVILLE*   PTCLDY    79  59  50 NW9G16    30.29F
KNOXVILLE        N/A     79  57  46 SW17      30.30F
LAFOLLETTE*    MOCLDY    77  57  50 VRB3      30.34F
OAK RIDGE        N/A     78  62  57 SW9       30.31F
CROSSVILLE       N/A     70  56  61 W6        30.34F
NASHVILLE      PTSUNNY   79  58  48 S13G21    30.26F
$$

...KEY TO REMARKS...
VSB - VISIBILITY IN MILES
WCI - WIND CHILL INDEX
HX  - HEAT INDEX

$$




USA.gov is the U.S. government's official web portal to all federal, state and local government web resources and services.